Wilmington, OH

7:00 PM EDT on July 21, 2017 (GMT -0400)
Airborne

Weather History for KILN - July, 2013

Change the Weather History Date:

Saturday, July 13, 2013

  Actual Average (KFFO) Record (KFFO)
Temperature  
Mean Temperature 72 °F -  
Max Temperature 82 °F 81 °F 92 °F (2016)
Min Temperature 62 °F 60 °F 51 °F (1998)
Cooling Degree Days 6    
Growing Degree Days 22 (Base 50)    
Moisture  
Dew Point 63 °F    
Average Humidity 77    
Maximum Humidity 93    
Minimum Humidity 58    
Precipitation  
Precipitation 0.00 in - - ()
Sea Level Pressure  
Sea Level Pressure 30.12 in    
Wind  
Wind Speed 6 mph (ENE)    
Max Wind Speed 10 mph    
Max Gust Speed 18 mph    
Visibility 10 miles    
Events      
Averages and records for this station are not official NWS values.
T = Trace of Precipitation, MM = Missing Value Source: NWS Daily Summary

Daily Weather History Graph

Daily Weather History Graph

Search for Another Location

Airport or City:

Trip Planner

Search our weather history database for the weather conditions in past years. The results will help you decide how hot, cold, wet, or windy it might be!

Date:

Astronomy

Jul. 13, 2013 Rise Set
Actual Time 6:19 AM EDT 9:02 PM EDT
Civil Twilight 5:47 AM EDT 9:33 PM EDT
Nautical Twilight 5:08 AM EDT 10:13 PM EDT
Astronomical Twilight 4:23 AM EDT 10:57 PM EDT
Moon 11:32 AM EDT (7/13) 11:44 PM EDT (7/13)
Length of Visible Light 15h 46m
Length of Day
14h 42m
Waxing Crescent, 25% of the Moon is Illuminated
Jul 13
Waxing Crescent
Jul 15
First Quarter
Jul 22
Full
Jul 29
Last Quarter
Aug 6
New

Hourly Weather History & Observations

Time (EDT) Temp. Heat Index Dew Point Humidity Pressure Visibility Wind Dir Wind Speed Gust Speed Precip Events Conditions
12:54 AM 64.9 °F - 61.0 °F 87% 30.08 in 10.0 mi ENE 4.6 mph - N/A   Clear
1:54 AM 64.9 °F - 61.0 °F 87% 30.07 in 10.0 mi NE 3.5 mph - N/A   Clear
2:54 AM 64.0 °F - 61.0 °F 90% 30.08 in 10.0 mi NNE 4.6 mph - N/A   Scattered Clouds
3:54 AM 63.0 °F - 60.1 °F 90% 30.07 in 10.0 mi NE 5.8 mph - N/A   Clear
4:54 AM 63.0 °F - 59.0 °F 87% 30.09 in 10.0 mi ENE 4.6 mph - N/A   Clear
5:54 AM 62.1 °F - 59.0 °F 90% 30.09 in 10.0 mi NNE 6.9 mph - N/A   Clear
6:54 AM 62.1 °F - 60.1 °F 93% 30.09 in 9.0 mi NE 6.9 mph - N/A   Clear
7:27 AM 64.4 °F - 60.8 °F 88% 30.13 in 10.0 mi NE 6.9 mph - N/A   Mostly Cloudy
7:54 AM 66.0 °F - 62.1 °F 87% 30.12 in 10.0 mi NE 6.9 mph - N/A   Overcast
8:19 AM 66.2 °F - 62.6 °F 88% 30.13 in 10.0 mi NE 9.2 mph - N/A   Scattered Clouds
8:54 AM 69.1 °F - 62.1 °F 78% 30.12 in 10.0 mi ENE 9.2 mph - N/A   Clear
9:54 AM 69.1 °F - 63.0 °F 81% 30.12 in 10.0 mi East 6.9 mph 18.4 mph N/A   Scattered Clouds
10:05 AM 69.8 °F - 62.6 °F 78% 30.14 in 10.0 mi East 10.4 mph 16.1 mph N/A   Mostly Cloudy
10:33 AM 69.8 °F - 62.6 °F 78% 30.14 in 10.0 mi East 6.9 mph - N/A   Scattered Clouds
10:54 AM 70.0 °F - 63.0 °F 78% 30.13 in 10.0 mi Variable 5.8 mph - N/A   Mostly Cloudy
11:11 AM 71.6 °F - 64.4 °F 78% 30.15 in 10.0 mi East 4.6 mph - N/A   Scattered Clouds
11:54 AM 73.9 °F - 64.0 °F 71% 30.14 in 10.0 mi East 4.6 mph - N/A   Partly Cloudy
12:54 PM 77.0 °F - 64.0 °F 64% 30.12 in 10.0 mi ENE 8.1 mph - N/A   Clear
1:54 PM 79.0 °F - 64.0 °F 60% 30.12 in 10.0 mi ENE 6.9 mph - N/A   Partly Cloudy
2:54 PM 79.0 °F - 64.0 °F 60% 30.12 in 10.0 mi East 9.2 mph - N/A   Partly Cloudy
3:54 PM 79.0 °F - 64.0 °F 60% 30.12 in 10.0 mi ENE 5.8 mph - N/A   Scattered Clouds
4:54 PM 81.0 °F 82.7 °F 64.9 °F 58% 30.10 in 10.0 mi ESE 6.9 mph - N/A   Clear
5:54 PM 81.0 °F 82.7 °F 64.9 °F 58% 30.10 in 10.0 mi East 5.8 mph - N/A   Clear
6:54 PM 80.1 °F 81.9 °F 64.9 °F 60% 30.11 in 10.0 mi Variable 6.9 mph - N/A   Clear
7:54 PM 78.1 °F - 64.9 °F 64% 30.11 in 10.0 mi East 5.8 mph - N/A   Clear
8:54 PM 75.0 °F - 66.9 °F 76% 30.12 in 10.0 mi East 4.6 mph - N/A   Clear
9:54 PM 72.0 °F - 66.0 °F 81% 30.14 in 10.0 mi ENE 5.8 mph - N/A   Clear
10:54 PM 71.1 °F - 66.0 °F 84% 30.16 in 10.0 mi ENE 6.9 mph - N/A   Clear
11:54 PM 70.0 °F - 66.0 °F 87% 30.16 in 10.0 mi NE 8.1 mph - N/A   Clear